TFL46D EHAM-LGZA

Flight info

Callsign TFL46D
Flight time N/A
Altitude 35000
Route EDUPO Z739 MISGO DCT DIXAT DCT DOJOH DCT DODEN DCT NEGIX DCT DINKU M867 XERUM DCT BAVAX DCT RADIZ DCT DEGUM DCT DABAR DCT PALEZ DCT DIGOT DCT NUPSO DCT OKLAX DCT RILIM DCT AIOSA DCT ENOXA DCT LUPAL DCT LATAN UM872 ASTUS
Aircraft B38M/M-SDE2E3FGHIRWXY/KG1

Departure

Time N/A
Airport Amsterdam Airport Schiphol (EHAM)

Arrival

Time 2026-04-26 15:49
Airport Zakynthos International Airport Dionysios Solomos (LGZA)
Time Latitude Longitude Altitude Speed Heading
2026-04-26 14:32 44.63202 15.49170 35075 ft 463 kts 153°
2026-04-26 14:32 44.60382 15.51230 35075 ft 463 kts 153°
2026-04-26 14:33 44.55241 15.54981 35075 ft 463 kts 153°
2026-04-26 14:33 44.49554 15.59125 35076 ft 463 kts 153°
2026-04-26 14:34 44.43871 15.63257 35076 ft 463 kts 153°
2026-04-26 14:34 44.38137 15.67417 35077 ft 472 kts 154°
2026-04-26 14:35 44.32281 15.71655 35073 ft 472 kts 154°
2026-04-26 14:35 44.26493 15.75834 35074 ft 472 kts 154°
2026-04-26 14:36 44.20691 15.80013 35074 ft 472 kts 154°
2026-04-26 14:36 44.14880 15.84189 35074 ft 472 kts 154°
2026-04-26 14:37 44.09043 15.88376 35075 ft 472 kts 154°
2026-04-26 14:37 44.03230 15.92539 35075 ft 471 kts 154°
2026-04-26 14:38 43.97441 15.96676 35075 ft 471 kts 154°
2026-04-26 14:38 43.91612 16.00832 35076 ft 472 kts 154°
2026-04-26 14:39 43.85814 16.04950 35073 ft 472 kts 155°
2026-04-26 14:39 43.79903 16.08840 35073 ft 472 kts 156°
2026-04-26 14:40 43.73972 16.12673 35073 ft 472 kts 156°
2026-04-26 14:40 43.68041 16.16510 35074 ft 471 kts 156°
2026-04-26 14:41 43.62116 16.20341 35074 ft 471 kts 156°
2026-04-26 14:41 43.56230 16.24141 35074 ft 471 kts 156°
2026-04-26 14:42 43.50291 16.27969 35075 ft 472 kts 156°
2026-04-26 14:42 43.44393 16.31763 35075 ft 471 kts 156°
2026-04-26 14:43 43.38461 16.35572 35073 ft 472 kts 156°
2026-04-26 14:43 43.32535 16.39369 35066 ft 471 kts 156°
2026-04-26 14:44 43.26615 16.43155 35057 ft 471 kts 156°
2026-04-26 14:44 43.20683 16.46941 35051 ft 470 kts 156°
2026-04-26 14:45 43.14779 16.50700 35049 ft 470 kts 156°
2026-04-26 14:45 43.08871 16.54455 35050 ft 471 kts 156°
2026-04-26 14:46 43.02944 16.58213 35050 ft 470 kts 156°
2026-04-26 14:46 42.97055 16.61939 35050 ft 468 kts 156°
2026-04-26 14:47 42.91174 16.65654 35049 ft 465 kts 157°
2026-04-26 14:47 42.85341 16.69333 35048 ft 463 kts 157°
2026-04-26 14:48 42.79480 16.73021 35057 ft 464 kts 157°
2026-04-26 14:48 42.73657 16.76677 35057 ft 464 kts 157°
2026-04-26 14:49 42.67809 16.80342 35061 ft 464 kts 157°
2026-04-26 14:49 42.61961 16.83940 35083 ft 465 kts 158°
2026-04-26 14:50 42.56042 16.87480 35099 ft 465 kts 158°
2026-04-26 14:50 42.50156 16.90992 35103 ft 465 kts 158°
2026-04-26 14:51 42.44250 16.94509 35111 ft 466 kts 158°
2026-04-26 14:51 42.38330 16.98028 35127 ft 466 kts 158°
2026-04-26 14:52 42.32408 17.01542 35128 ft 466 kts 158°
2026-04-26 14:52 42.26482 17.05051 35127 ft 467 kts 158°
2026-04-26 14:53 42.20567 17.08548 35111 ft 467 kts 158°
2026-04-26 14:53 42.14629 17.12051 35105 ft 467 kts 158°
2026-04-26 14:54 42.08719 17.15530 35110 ft 467 kts 158°
2026-04-26 14:54 42.02765 17.19028 35111 ft 467 kts 158°
2026-04-26 14:55 41.96855 17.22493 35106 ft 467 kts 158°
2026-04-26 14:55 41.90886 17.25986 35103 ft 467 kts 158°
2026-04-26 14:56 41.84979 17.29439 35101 ft 467 kts 158°
2026-04-26 14:56 41.79015 17.32917 35100 ft 467 kts 158°
2026-04-26 14:57 41.73082 17.36371 35101 ft 467 kts 158°
2026-04-26 14:57 41.67100 17.39845 35111 ft 473 kts 158°
2026-04-26 14:58 41.61228 17.43253 35097 ft 454 kts 158°
2026-04-26 14:58 41.55397 17.46627 35101 ft 459 kts 158°
2026-04-26 14:59 41.49548 17.50004 35089 ft 459 kts 158°
2026-04-26 14:59 41.43702 17.53374 35078 ft 459 kts 158°
2026-04-26 15:00 41.37877 17.56724 35076 ft 459 kts 158°
2026-04-26 15:00 41.32032 17.60079 35076 ft 459 kts 158°
2026-04-26 15:01 41.26188 17.63428 35077 ft 459 kts 158°
2026-04-26 15:01 41.20376 17.66752 35073 ft 459 kts 159°
2026-04-26 15:02 41.14615 17.70390 35073 ft 459 kts 156°
2026-04-26 15:02 41.08924 17.74116 35074 ft 458 kts 156°
2026-04-26 15:03 41.03283 17.77802 35072 ft 451 kts 156°
2026-04-26 15:03 40.97692 17.81444 35072 ft 445 kts 156°
2026-04-26 15:04 40.92199 17.85014 35072 ft 442 kts 157°
2026-04-26 15:04 40.86610 17.88633 35076 ft 452 kts 156°
2026-04-26 15:05 40.80999 17.92263 35074 ft 451 kts 156°
2026-04-26 15:05 40.75398 17.95878 35075 ft 451 kts 156°
2026-04-26 15:06 40.69780 17.99497 35074 ft 451 kts 156°
2026-04-26 15:06 40.64153 18.03115 35074 ft 451 kts 156°
2026-04-26 15:07 40.55707 18.08532 35074 ft 451 kts 156°
2026-04-26 15:07 40.50106 18.12116 35074 ft 451 kts 156°
2026-04-26 15:08 40.44457 18.15723 35074 ft 452 kts 156°
2026-04-26 15:08 40.38817 18.19318 35074 ft 452 kts 156°
2026-04-26 15:09 40.33201 18.22892 35074 ft 452 kts 156°
2026-04-26 15:09 40.27562 18.26472 35074 ft 452 kts 156°
2026-04-26 15:10 40.22852 18.29459 35074 ft 452 kts 156°
2026-04-26 15:10 40.16300 18.33606 35063 ft 443 kts 156°
2026-04-26 15:11 40.10817 18.37070 35077 ft 443 kts 157°
2026-04-26 15:11 40.05241 18.40584 35074 ft 445 kts 157°
2026-04-26 15:12 39.99693 18.44075 35074 ft 444 kts 157°
2026-04-26 15:12 39.94162 18.47549 35074 ft 444 kts 157°
2026-04-26 15:13 39.88611 18.51029 35067 ft 446 kts 156°
2026-04-26 15:13 39.82969 18.54557 35077 ft 454 kts 156°
2026-04-26 15:14 39.77294 18.58102 35077 ft 452 kts 156°
2026-04-26 15:14 39.71666 18.61611 35077 ft 452 kts 156°
2026-04-26 15:15 39.65989 18.65144 35084 ft 452 kts 157°
2026-04-26 15:15 39.60424 18.68603 35072 ft 441 kts 157°
2026-04-26 15:16 39.54910 18.72020 35074 ft 444 kts 157°
2026-04-26 15:16 39.49356 18.75509 35071 ft 445 kts 154°
2026-04-26 15:17 39.45148 18.79325 35079 ft 450 kts 141°
2026-04-26 15:17 39.39957 18.85991 35073 ft 451 kts 137°
2026-04-26 15:18 39.35574 18.91747 35073 ft 451 kts 137°
2026-04-26 15:18 39.31181 18.97492 35072 ft 452 kts 137°
2026-04-26 15:19 39.26745 19.03288 35061 ft 454 kts 137°
2026-04-26 15:19 39.22313 19.09076 35048 ft 457 kts 137°
2026-04-26 15:20 39.17836 19.14910 35035 ft 459 kts 136°
2026-04-26 15:20 39.13377 19.20708 35023 ft 461 kts 136°
2026-04-26 15:21 39.08855 19.26576 35021 ft 461 kts 136°
2026-04-26 15:21 39.04366 19.32389 35021 ft 460 kts 136°
2026-04-26 15:22 38.99820 19.38264 35026 ft 469 kts 136°
2026-04-26 15:22 38.95229 19.44183 35021 ft 467 kts 135°
2026-04-26 15:23 38.90677 19.50043 35022 ft 464 kts 135°
2026-04-26 15:23 38.86549 19.55347 35020 ft 462 kts 135°
2026-04-26 15:24 38.82025 19.61150 35021 ft 462 kts 135°
2026-04-26 15:24 38.77556 19.66870 35016 ft 446 kts 135°
2026-04-26 15:25 38.73155 19.72494 35026 ft 450 kts 135°
2026-04-26 15:25 38.68746 19.78119 35043 ft 449 kts 135°
2026-04-26 15:26 38.64346 19.83720 35015 ft 450 kts 135°
2026-04-26 15:26 38.62128 19.86539 34473 ft 455 kts 135°
2026-04-26 15:26 38.59858 19.89423 33530 ft 462 kts 135°
2026-04-26 15:27 38.57604 19.92283 32704 ft 465 kts 135°
2026-04-26 15:27 38.55326 19.95171 32073 ft 463 kts 135°
2026-04-26 15:27 38.53043 19.98062 31418 ft 461 kts 135°
2026-04-26 15:27 38.50783 20.00921 30770 ft 460 kts 135°
2026-04-26 15:28 38.48509 20.03795 30127 ft 458 kts 135°
2026-04-26 15:28 38.46273 20.06620 29493 ft 456 kts 135°
2026-04-26 15:28 38.44043 20.09433 28861 ft 453 kts 135°
2026-04-26 15:28 38.41706 20.12106 28376 ft 446 kts 147°
2026-04-26 15:29 38.38938 20.13678 28023 ft 435 kts 168°
2026-04-26 15:29 38.35987 20.13916 27365 ft 431 kts 189°
2026-04-26 15:29 38.30917 20.10390 25984 ft 421 kts 234°
2026-04-26 15:30 38.28144 20.04085 25443 ft 399 kts 242°
2026-04-26 15:30 38.26592 20.01243 25070 ft 395 kts 225°
2026-04-26 15:30 38.24332 19.99329 24554 ft 395 kts 202°
2026-04-26 15:31 38.22223 19.98667 24098 ft 391 kts 188°
2026-04-26 15:31 38.16929 19.97963 22966 ft 378 kts 188°
2026-04-26 15:31 38.14330 19.97596 22446 ft 370 kts 186°
2026-04-26 15:32 38.10104 19.97452 21632 ft 369 kts 179°
2026-04-26 15:32 38.06692 19.97772 20959 ft 370 kts 174°
2026-04-26 15:32 38.04163 19.98240 20454 ft 370 kts 171°
2026-04-26 15:33 38.01635 19.98908 19945 ft 371 kts 167°
2026-04-26 15:33 37.99162 19.99767 19450 ft 370 kts 164°
2026-04-26 15:33 37.96754 20.00808 19004 ft 369 kts 160°
2026-04-26 15:33 37.94404 20.02029 18534 ft 368 kts 156°
2026-04-26 15:34 37.92106 20.03437 18061 ft 367 kts 153°
2026-04-26 15:34 37.89873 20.05025 17582 ft 366 kts 149°
2026-04-26 15:34 37.87750 20.06757 17104 ft 365 kts 146°
2026-04-26 15:34 37.85710 20.08650 16634 ft 363 kts 142°
2026-04-26 15:35 37.83784 20.10675 16171 ft 362 kts 139°
2026-04-26 15:35 37.81975 20.12817 15710 ft 360 kts 135°
2026-04-26 15:35 37.80249 20.15118 15241 ft 358 kts 131°
2026-04-26 15:35 37.78664 20.17500 14779 ft 357 kts 128°
2026-04-26 15:36 37.77190 20.20000 14315 ft 355 kts 124°
2026-04-26 15:36 37.75806 20.22595 13909 ft 351 kts 124°
2026-04-26 15:36 37.74544 20.25156 13570 ft 346 kts 116°
2026-04-26 15:36 37.73693 20.27986 13112 ft 344 kts 103°
2026-04-26 15:37 37.73346 20.30962 12612 ft 343 kts 90°
2026-04-26 15:37 37.73527 20.33962 12189 ft 338 kts 77°
2026-04-26 15:37 37.74060 20.36812 11824 ft 334 kts 78°
2026-04-26 15:37 37.74330 20.39691 11349 ft 335 kts 85°
2026-04-26 15:38 37.74409 20.42645 10914 ft 333 kts 88°
2026-04-26 15:38 37.74434 20.45512 10648 ft 326 kts 88°
2026-04-26 15:38 37.74450 20.48348 10379 ft 320 kts 88°
2026-04-26 15:38 37.74462 20.51162 10109 ft 315 kts 88°
2026-04-26 15:39 37.74474 20.53885 9803 ft 311 kts 88°
2026-04-26 15:39 37.74485 20.56610 9452 ft 310 kts 88°
2026-04-26 15:39 37.74493 20.59302 9117 ft 308 kts 89°
2026-04-26 15:39 37.74307 20.61072 9026 ft 302 kts 107°
2026-04-26 15:40 37.72698 20.63851 8584 ft 300 kts 147°
2026-04-26 15:40 37.70742 20.64678 8103 ft 300 kts 179°
2026-04-26 15:40 37.68687 20.64627 7929 ft 292 kts 178°
2026-04-26 15:40 37.66715 20.65143 7615 ft 292 kts 159°
2026-04-26 15:41 37.64940 20.66338 7323 ft 291 kts 147°
2026-04-26 15:41 37.63291 20.67774 7008 ft 290 kts 144°
2026-04-26 15:41 37.61685 20.69340 6694 ft 289 kts 140°
2026-04-26 15:41 37.60222 20.71046 6402 ft 287 kts 134°
2026-04-26 15:42 37.58915 20.72938 6102 ft 286 kts 128°
2026-04-26 15:42 37.57778 20.74976 5817 ft 284 kts 122°
2026-04-26 15:42 37.56813 20.77124 5543 ft 282 kts 116°
2026-04-26 15:42 37.56019 20.79372 5280 ft 279 kts 110°
2026-04-26 15:43 37.55407 20.81687 5017 ft 277 kts 104°
2026-04-26 15:43 37.54979 20.84041 4754 ft 274 kts 99°
2026-04-26 15:43 37.54668 20.88779 4230 ft 270 kts 88°
2026-04-26 15:44 37.54776 20.91108 3971 ft 268 kts 82°
2026-04-26 15:44 37.55572 20.95627 3488 ft 259 kts 58°
2026-04-26 15:44 37.56815 20.97105 3405 ft 241 kts 23°
2026-04-26 15:45 37.59820 20.96555 2946 ft 223 kts 320°
2026-04-26 15:45 37.60916 20.95212 2686 ft 221 kts 314°
2026-04-26 15:46 37.63273 20.92816 2244 ft 214 kts 333°
2026-04-26 15:46 37.64618 20.92125 2138 ft 205 kts 342°
2026-04-26 15:46 37.65975 20.91680 1987 ft 197 kts 345°
2026-04-26 15:46 37.66839 20.91392 1811 ft 194 kts 343°
2026-04-26 15:47 37.68537 20.90815 1343 ft 185 kts 344°
2026-04-26 15:47 37.70838 20.90022 707 ft 156 kts 342°
2026-04-26 15:47 37.71851 20.89641 552 ft 147 kts 342°
2026-04-26 15:48 37.72827 20.89288 369 ft 147 kts 343°
2026-04-26 15:48 37.73808 20.88916 167 ft 148 kts 341°
2026-04-26 15:48 37.74791 20.88543 28 ft 144 kts 342°
2026-04-26 15:48 37.75560 20.88253 21 ft 77 kts 343°
2026-04-26 15:49 37.75887 20.88130 21 ft 29 kts 343°
2026-04-26 15:49 37.76021 20.88055 21 ft 12 kts 302°
2026-04-26 15:49 37.76064 20.88055 21 ft 6 kts 80°
2026-04-26 15:49 37.76027 20.88087 21 ft 11 kts 166°
2026-04-26 15:50 37.75907 20.88125 21 ft 23 kts 165°
2026-04-26 15:50 37.75744 20.88183 21 ft 24 kts 163°
2026-04-26 15:50 37.75582 20.88243 21 ft 24 kts 165°
2026-04-26 15:50 37.75488 20.88329 21 ft 13 kts 106°
2026-04-26 15:51 37.75451 20.88414 21 ft 9 kts 149°
2026-04-26 15:51 37.75444 20.88463 21 ft 5 kts 72°
2026-04-26 15:51 37.75452 20.88496 21 ft 0 kts 73°